Lid_Strength_Index
1 1 1 1 1 1 1 1 1 1 1 2 2 2 2 2 2 4 7 7 10 14 11 11 10 12 12 13 16 16 16 16 16 20 21 17 21 17 20 18 19 19 22 25 27 29 25 14 15 17 15 13 13 13
1 1 1 1 1 1 1 1 1 1 1 1 1 1 1 1 1 3 6 5 6 11 12 8 8 7 9 9 13 17 16 19 14 18 20 19 24 22 22 24 16 20 17 21 19 20 14 13 13 11 11 12 11 11
1 1 2 2 1 1 1 1 1 1 1 1 1 0 0 1 1 2 4 4 6 9 9 9 12 7 6 7 7 14 15 11 11 11 16 18 22 16 24 22 19 16 15 17 18 15 14 12 11 10 9 9 9 9
1 1 2 1 1 1 1 1 1 1 1 1 1 1 1 1 0 1 4 4 5 8 12 14 8 9 6 6 7 8 9 9 10 10 15 18 21 13 18 15 16 15 15 17 17 13 13 12 10 9 9 8 9 9
0 0 1 1 1 1 1 1 1 1 1 1 1 0 0 0 0 1 2 3 3 7 13 15 12 8 6 7 7 8 8 10 11 13 15 17 15 14 16 13 15 12 14 15 16 11 11 10 9 8 8 8 9 9
-1 -0 0 1 1 1 1 1 1 1 1 1 1 0 0 -0 -0 3 7 3 3 4 8 12 11 13 9 7 7 8 8 9 9 10 12 12 11 11 15 19 12 11 10 9 11 9 8 7 7 8 9 9 9 9
-1 -1 0 0 0 1 1 1 1 2 2 1 1 1 0 -0 1 5 6 4 1 2 8 11 11 12 9 10 12 10 8 9 9 9 11 11 11 9 14 15 12 9 9 9 8 8 9 9 9 8 8 9 10 12
-1 -1 -0 0 0 0 1 1 1 2 2 1 1 1 1 0 0 3 3 2 1 4 7 11 12 16 10 10 11 8 8 7 8 9 11 11 9 9 13 11 9 8 8 9 9 8 7 8 10 11 12 13 15 14
-1 -1 -0 0 0 0 1 1 1 1 1 1 1 1 3 5 6 5 1 -0 1 5 9 10 14 17 9 10 8 9 8 11 7 10 11 9 13 14 12 9 9 8 8 8 8 12 13 11 11 13 14 15 15 15
-0 -1 -0 1 1 1 1 1 1 1 1 0 2 6 8 6 1 1 4 6 6 6 6 10 12 13 10 12 14 13 11 12 14 12 10 11 13 10 8 8 8 9 10 11 15 15 19 17 15 15 15 16 16 16
0 0 1 1 1 2 2 2 1 0 1 3 6 7 4 1 4 6 8 9 10 11 9 12 13 14 12 15 15 10 13 12 15 14 13 18 20 11 8 8 7 8 10 15 15 16 16 16 16 16 18 18 18 19
1 0 0 1 1 1 1 1 1 2 4 4 4 3 3 6 7 10 11 13 14 15 12 14 15 12 13 10 12 11 13 13 15 18 17 20 14 12 11 10 16 16 17 19 20 18 18 18 18 19 19 21 22 22
1 1 1 1 1 1 1 1 1 1 1 4 6 8 8 9 12 13 17 14 21 13 14 17 14 11 9 9 11 11 14 14 15 14 17 18 16 13 15 20 23 23 22 22 22 22 22 23 24 24 24 25 26 27
1 1 1 2 1 1 1 1 1 1 4 8 10 13 13 14 11 18 18 17 15 16 14 14 12 12 10 11 10 14 13 14 16 18 21 20 14 12 19 22 23 25 24 23 25 25 25 25 26 27 27 28 29 30
2 2 2 2 2 2 1 1 1 3 6 9 10 13 13 17 21 22 22 19 16 14 10 13 14 10 13 12 11 13 17 17 18 20 19 16 16 19 21 24 25 25 26 28 28 27 26 27 28 30 33 33 32 32
3 3 3 2 2 2 2 2 3 4 6 9 10 15 19 19 21 22 22 17 15 9 9 9 11 12 13 12 13 15 17 20 19 20 23 24 23 24 24 26 28 28 28 29 30 30 28 29 29 32 35 35 34 33
4 10 4 3 3 3 3 8 5 7 9 11 19 26 20 13 15 22 22 16 13 11 12 12 13 14 11 14 15 15 19 20 25 23 24 24 23 25 26 27 30 30 31 31 35 33 34 36 37 35 31 32 35 34
14 9 4 3 6 7 11 13 11 11 16 18 19 24 25 24 20 17 18 15 12 11 11 12 10 13 14 15 16 19 24 26 24 25 25 26 27 28 28 30 33 32 33 33 31 33 37 35 34 32 32 33 33 32
10 6 5 4 5 11 16 17 15 15 20 23 22 21 22 22 20 20 18 16 14 13 13 11 12 14 15 21 22 22 23 21 22 24 26 27 27 29 31 31 31 31 31 33 34 29 32 33 32 33 31 31 31 32
6 6 6 6 7 12 15 17 15 17 20 20 20 22 22 21 23 24 22 17 15 13 13 14 19 23 23 25 25 23 22 22 24 26 27 27 27 28 28 28 28 29 28 29 30 30 33 32 33 33 33 32 32 31
9 11 8 11 14 16 19 20 22 20 19 21 23 21 21 22 24 24 24 20 15 22 21 25 26 27 26 26 26 25 26 24 27 26 26 28 27 27 28 28 27 26 27 28 29 33 34 33 32 33 33 33 33 32
13 8 16 12 15 18 21 20 22 21 22 26 22 23 27 27 27 25 21 20 25 28 28 28 28 29 27 28 29 31 30 30 29 26 25 25 28 27 27 27 26 28 33 34 35 34 34 33 33 33 32 32 29 29
12 12 16 17 19 21 23 19 24 25 24 25 24 24 27 28 28 22 22 24 26 27 29 29 29 29 28 28 28 27 27 25 27 30 30 28 29 29 28 32 32 30 32 31 34 34 32 29 29 29 29 29 29 28
17 23 23 23 22 25 27 25 21 22 22 25 23 22 26 31 25 22 25 27 27 26 27 29 29 28 27 27 28 29 29 30 32 31 30 26 26 30 31 31 34 34 33 33 32 32 32 31 27 28 28 30 29 28
21 30 27 28 25 26 26 25 23 23 25 24 23 23 28 32 25 26 26 29 28 27 27 27 27 26 28 28 27 30 32 32 30 31 32 31 33 33 32 34 34 32 34 32 32 30 29 29 29 29 28 28 28 27
33 35 32 33 29 31 28 28 28 30 27 25 26 25 30 26 25 29 30 29 28 28 28 29 30 29 29 30 32 31 30 36 36 31 32 34 33 32 35 32 31 28 25 25 26 26 25 25 27 27 26 26 25 26
32 36 36 33 31 29 27 27 27 26 28 28 30 28 25 26 29 31 31 27 27 30 30 31 33 32 33 33 33 35 36 37 33 31 32 34 33 32 29 27 25 23 25 24 24 24 24 25 25 25 26 27 26 26
38 37 37 34 36 36 32 29 29 31 30 31 29 28 27 29 30 27 27 26 30 31 32 33 32 33 33 31 30 29 28 28 26 25 27 26 26 25 25 25 23 17 23 24 24 24 25 25 26 27 27 26 25 27
38 36 35 32 36 36 36 34 33 34 34 33 29 28 29 27 27 28 26 25 25 27 28 27 24 25 25 24 23 22 22 22 23 24 24 24 23 23 25 26 26 26 27 27 22 20 25 26 26 26 26 26 26 29
37 39 32 29 30 33 35 38 37 37 36 36 36 31 29 28 26 26 27 27 27 27 27 26 24 23 23 23 23 24 24 23 23 24 25 25 24 24 25 26 27 28 30 31 27 27 23 27 28 32 32 32 32 32
42 43 38 35 35 37 39 41 38 37 36 35 35 32 30 30 27 25 24 25 26 24 23 23 24 24 24 25 26 25 23 23 23 24 24 24 25 27 28 28 27 29 30 28 28 28 28 31 34 33 32 31 31 30
37 38 35 33 35 39 43 40 38 37 36 35 33 33 30 29 28 25 24 24 25 25 24 25 25 25 24 24 24 25 22 24 24 23 24 24 24 25 25 25 25 27 28 28 28 27 28 29 30 30 29 30 29 29
35 36 35 33 32 33 34 34 32 31 30 30 31 31 31 29 28 25 22 25 27 27 26 25 25 25 25 24 24 24 23 24 23 19 20 19 19 19 20 26 26 26 26 26 26 27 27 28 29 29 30 30 30 29